Location: *
(43.4667°N, 11.6833°E)
Time: 03:44:04
(UTC+00:00)

Cosmos 2278 Rocket - Pass Details

Date: 19 July 2019
Orbit: 840 x 847 km, 71.0° (Epoch: 20 August)

Event Time Altitude Azimuth Distance (km) Brightness Sun altitude
Rises 23:06:10 0° 325° (NW) 3,412 6.3 -25.7°
Reaches altitude 10° 23:08:53 10° 315° (NW) 2,473 5.2 -25.7°
Maximum altitude 23:13:41 29° 257° (WSW) 1,502 3.3 -25.8°
Enters shadow 23:13:48 29° 255° (WSW) 1,503 3.3 -25.8°
